Regional Weather Roundup
Issued by NWS Glasgow, MT

Home | Current Version | Previous Version | Text Only | Print | Product List | Glossary On
Versions: 1 2 3 4 5 6 7 8 9 10 11 12 13 14 15 16 17 18 19 20 21 22 23 24 25 26 27 28 29 30 31 32 33 34 35 36 37 38 39 40 41 42 43 44 45 46 47 48 49 50
000
ASUS45 KGGW 261015
RWRGGW
HOURLY REGIONAL WEATHER ROUNDUP FOR NORTHEAST MONTANA
NATIONAL WEATHER SERVICE GLASGOW MONTANA
400 AM MDT SUN MAR 26 2017

NOTE: "FAIR" INDICATES FEW OR NO CLOUDS BELOW 12,000 FEET WITH NO
SIGNIFICANT WEATHER AND/OR OBSTRUCTIONS TO VISISBILITY.

NORTHEAST MONTANA


CITY           SKY/WX    TMP DP  RH WIND       PRES   REMARKS
GLASGOW        CLEAR     36  26  67 SE6       29.86F
PLENTYWOOD       N/A     39  32  76 SE3         N/A
WOLF POINT     CLOUDY    36  31  82 NE3       29.88F
JORDAN           N/A     32  28  85 CALM      29.88F
WINNETT          N/A     31  25  78 S2          N/A
SIDNEY         CLOUDY    37  31  78 CALM      29.89F
GLENDIVE       MOCLDY    45  36  70 SW9       29.90F
MALTA            N/A     34  28  79 SW7         N/A
SCOBEY           N/A     33  21  61 CALM      29.86

FORT PECK REPORTS


CITY           SKY/WX    TMP DP  RH WIND       PRES   REMARKS
FORT PECK        N/A     41  27  57 SE7         N/A
THE PINES        N/A     44  28  53 CALM        N/A

SOUTHEAST MONTANA


CITY           SKY/WX    TMP DP  RH WIND       PRES   REMARKS
BILLINGS       MOCLDY    39  33  79 SW13      29.91S
MILES CITY     CLOUDY    43  36  76 SE6       29.91S
BAKER          CLOUDY    40  37  89 S8        29.91F
LIVINGSTON     CLOUDY    32  28  85 NW8       29.93F

CENTRAL MONTANA


CITY           SKY/WX    TMP DP  RH WIND       PRES   REMARKS
HAVRE          CLOUDY    40  27  59 SW8       29.91F
LEWISTOWN      CLOUDY    30  21  69 CALM      29.94R
GREAT FALLS    CLEAR     35  23  61 S12       29.91F
CUT BANK       CLEAR     32  19  58 W14       29.88S
HELENA         CLEAR     37  26  64 SW9       29.95F
BUTTE          CLEAR     27  23  85 CALM      29.97S
BOZEMAN        CLOUDY    32  30  92 NE3       29.96S

WESTERN MONTANA


CITY           SKY/WX    TMP DP  RH WIND       PRES   REMARKS
MISSOULA       MOCLDY    32  28  85 NW3       30.03S
KALISPELL      NOT AVBL

NORTH DAKOTA


CITY           SKY/WX    TMP DP  RH WIND       PRES   REMARKS
WILLISTON      MOCLDY    42  33  70 CALM      29.89F
DICKINSON      CLOUDY    41  36  82 SE7       29.88F
MINOT          MOCLDY    39  34  82 W5        29.89F
BISMARCK       CLOUDY    38  34  85 SE5       29.93F

SOUTHERN SASKATCHEWAN


CITY           SKY/WX    TMP DP  RH WIND       PRES   REMARKS
REGINA         PTCLDY    34  32  93 SE7       29.86S
ESTEVAN        MOCLDY    34  32  93 SE7       29.88F
SWIFT CURRENT  CLEAR     32  23  69 SW14      29.83S




USA.gov is the U.S. government's official web portal to all federal, state and local government web resources and services.